#Datum;Uhrzeit;WR;Pac;DaySum;Status;WR;Pac;DaySum;Status;Pdc1;Udc;Temp;WR;Pac;DaySum;Status;Pdc1;Udc;Temp;WR;Pac;DaySum;Status;Pdc1;Udc;Temp;WR;Pac;DaySum;Status;Pdc1;Pdc2;Udc1;Udc2;Temp;WR;Pac;DaySum;Status;Pdc1;Pdc2;Udc1;Udc2;Temp;WR;Pac;DaySum;Status;Pdc1;Udc;Temp;WR;Pac;DaySum;Status;Pdc1;Udc;Temp;WR;Pac;DaySum;Status;Pdc1;Udc;Temp
27.10.21;23:55:00;1;400;11400;0;2;0;17414;0;0;0;0;3;0;11091;0;0;0;0;4;0;14089;0;0;0;0;5;0;33942;0;0;0;0;0;0;6;0;25351;0;0;0;0;0;0;7;0;23631;0;0;0;0;8;0;22891;0;0;0;0;9;0;12236;0;0;0;0
27.10.21;23:50:00;1;410;11367;0;2;0;17414;0;0;0;0;3;0;11091;0;0;0;0;4;0;14089;0;0;0;0;5;0;33942;0;0;0;0;0;0;6;0;25351;0;0;0;0;0;0;7;0;23631;0;0;0;0;8;0;22891;0;0;0;0;9;0;12236;0;0;0;0
27.10.21;23:45:00;1;425;11333;0;2;0;17414;0;0;0;0;3;0;11091;0;0;0;0;4;0;14089;0;0;0;0;5;0;33942;0;0;0;0;0;0;6;0;25351;0;0;0;0;0;0;7;0;23631;0;0;0;0;8;0;22891;0;0;0;0;9;0;12236;0;0;0;0
27.10.21;23:40:00;1;367;11298;0;2;0;17414;0;0;0;0;3;0;11091;0;0;0;0;4;0;14089;0;0;0;0;5;0;33942;0;0;0;0;0;0;6;0;25351;0;0;0;0;0;0;7;0;23631;0;0;0;0;8;0;22891;0;0;0;0;9;0;12236;0;0;0;0
27.10.21;23:35:00;1;332;11267;0;2;0;17414;0;0;0;0;3;0;11091;0;0;0;0;4;0;14089;0;0;0;0;5;0;33942;0;0;0;0;0;0;6;0;25351;0;0;0;0;0;0;7;0;23631;0;0;0;0;8;0;22891;0;0;0;0;9;0;12236;0;0;0;0
27.10.21;23:30:00;1;293;11239;0;2;0;17414;0;0;0;0;3;0;11091;0;0;0;0;4;0;14089;0;0;0;0;5;0;33942;0;0;0;0;0;0;6;0;25351;0;0;0;0;0;0;7;0;23631;0;0;0;0;8;0;22891;0;0;0;0;9;0;12236;0;0;0;0
27.10.21;23:25:00;1;260;11215;0;2;0;17414;0;0;0;0;3;0;11091;0;0;0;0;4;0;14089;0;0;0;0;5;0;33942;0;0;0;0;0;0;6;0;25351;0;0;0;0;0;0;7;0;23631;0;0;0;0;8;0;22891;0;0;0;0;9;0;12236;0;0;0;0
27.10.21;23:20:00;1;260;11194;0;2;0;17414;0;0;0;0;3;0;11091;0;0;0;0;4;0;14089;0;0;0;0;5;0;33942;0;0;0;0;0;0;6;0;25351;0;0;0;0;0;0;7;0;23631;0;0;0;0;8;0;22891;0;0;0;0;9;0;12236;0;0;0;0
27.10.21;23:15:00;1;260;11172;0;2;0;17414;0;0;0;0;3;0;11091;0;0;0;0;4;0;14089;0;0;0;0;5;0;33942;0;0;0;0;0;0;6;0;25351;0;0;0;0;0;0;7;0;23631;0;0;0;0;8;0;22891;0;0;0;0;9;0;12236;0;0;0;0
27.10.21;23:10:00;1;264;11150;0;2;0;17414;0;0;0;0;3;0;11091;0;0;0;0;4;0;14089;0;0;0;0;5;0;33942;0;0;0;0;0;0;6;0;25351;0;0;0;0;0;0;7;0;23631;0;0;0;0;8;0;22891;0;0;0;0;9;0;12236;0;0;0;0
27.10.21;23:05:00;1;299;11128;0;2;0;17414;0;0;0;0;3;0;11091;0;0;0;0;4;0;14089;0;0;0;0;5;0;33942;0;0;0;0;0;0;6;0;25351;0;0;0;0;0;0;7;0;23631;0;0;0;0;8;0;22891;0;0;0;0;9;0;12236;0;0;0;0
27.10.21;23:00:00;1;318;11103;0;2;0;17414;0;0;0;0;3;0;11091;0;0;0;0;4;0;14089;0;0;0;0;5;0;33942;0;0;0;0;0;0;6;0;25351;0;0;0;0;0;0;7;0;23631;0;0;0;0;8;0;22891;0;0;0;0;9;0;12236;0;0;0;0
27.10.21;22:55:00;1;372;11076;0;2;0;17414;0;0;0;0;3;0;11091;0;0;0;0;4;0;14089;0;0;0;0;5;0;33942;2;0;0;0;0;0;6;0;25351;2;0;0;0;0;0;7;0;23631;0;0;0;0;8;0;22891;0;0;0;0;9;0;12236;0;0;0;0
27.10.21;22:50:00;1;358;11045;0;2;0;17414;0;0;0;0;3;0;11091;0;0;0;0;4;0;14089;0;0;0;0;5;0;33942;2;0;0;0;0;0;6;0;25351;2;0;0;0;0;0;7;0;23631;0;0;0;0;8;0;22891;0;0;0;0;9;0;12236;0;0;0;0
27.10.21;22:45:00;1;369;11015;0;2;0;17414;0;0;0;0;3;0;11091;0;0;0;0;4;0;14089;0;0;0;0;5;0;33942;2;0;0;0;0;0;6;0;25351;2;0;0;0;0;0;7;0;23631;0;0;0;0;8;0;22891;0;0;0;0;9;0;12236;0;0;0;0
27.10.21;22:40:00;1;429;10983;0;2;0;17414;0;0;0;0;3;0;11091;0;0;0;0;4;0;14089;0;0;0;0;5;0;33942;2;0;0;0;0;0;6;0;25351;2;0;0;0;0;0;7;0;23631;0;0;0;0;8;0;22891;0;0;0;0;9;0;12236;0;0;0;0
27.10.21;22:35:00;1;413;10947;0;2;0;17414;0;0;0;0;3;0;11091;0;0;0;0;4;0;14089;0;0;0;0;5;0;33942;2;0;0;0;0;0;6;0;25351;2;0;0;0;0;0;7;0;23631;0;0;0;0;8;0;22891;0;0;0;0;9;0;12236;0;0;0;0
27.10.21;22:30:00;1;316;10913;0;2;0;17414;0;0;0;0;3;0;11091;0;0;0;0;4;0;14089;0;0;0;0;5;0;33942;2;0;0;0;0;0;6;0;25351;2;0;0;0;0;0;7;0;23631;0;0;0;0;8;0;22891;0;0;0;0;9;0;12236;0;0;0;0
27.10.21;22:25:00;1;295;10887;0;2;0;17414;0;0;0;0;3;0;11091;0;0;0;0;4;0;14089;0;0;0;0;5;0;33942;2;0;0;0;0;0;6;0;25351;2;0;0;0;0;0;7;0;23631;0;0;0;0;8;0;22891;0;0;0;0;9;0;12236;0;0;0;0
27.10.21;22:20:00;1;348;10862;0;2;0;17414;0;0;0;0;3;0;11091;0;0;0;0;4;0;14089;0;0;0;0;5;0;33942;2;0;0;0;0;0;6;0;25351;2;0;0;0;0;0;7;0;23631;0;0;0;0;8;0;22891;0;0;0;0;9;0;12236;0;0;0;0
27.10.21;22:15:00;1;358;10833;0;2;0;17414;0;0;0;0;3;0;11091;0;0;0;0;4;0;14089;0;0;0;0;5;0;33942;2;0;0;0;0;0;6;0;25351;2;0;0;0;0;0;7;0;23631;0;0;0;0;8;0;22891;0;0;0;0;9;0;12236;0;0;0;0
27.10.21;22:10:00;1;311;10804;0;2;0;17414;0;0;0;0;3;0;11091;0;0;0;0;4;0;14089;0;0;0;0;5;0;33942;2;0;0;0;0;0;6;0;25351;2;0;0;0;0;0;7;0;23631;0;0;0;0;8;0;22891;0;0;0;0;9;0;12236;0;0;0;0
27.10.21;22:05:00;1;278;10779;0;2;0;17414;0;0;0;0;3;0;11091;0;0;0;0;4;0;14089;0;0;0;0;5;0;33942;2;0;0;0;0;0;6;0;25351;2;0;0;0;0;0;7;0;23631;0;0;0;0;8;0;22891;0;0;0;0;9;0;12236;0;0;0;0
27.10.21;22:00:00;1;281;10756;0;2;0;17414;0;0;0;0;3;0;11091;0;0;0;0;4;0;14089;0;0;0;0;5;0;33942;2;0;0;0;0;0;6;0;25351;2;0;0;0;0;0;7;0;23631;0;0;0;0;8;0;22891;0;0;0;0;9;0;12236;0;0;0;0
27.10.21;21:55:00;1;299;10732;0;2;0;17414;0;0;0;0;3;0;11091;0;0;0;0;4;0;14089;0;0;0;0;5;0;33942;2;0;0;0;0;0;6;0;25351;2;0;0;0;0;0;7;0;23631;0;0;0;0;8;0;22891;0;0;0;0;9;0;12236;0;0;0;0
27.10.21;21:50:00;1;323;10707;0;2;0;17414;0;0;0;0;3;0;11091;0;0;0;0;4;0;14089;0;0;0;0;5;0;33942;2;0;0;0;0;0;6;0;25351;2;0;0;0;0;0;7;0;23631;0;0;0;0;8;0;22891;0;0;0;0;9;0;12236;0;0;0;0
27.10.21;21:45:00;1;358;10680;0;2;0;17414;0;0;0;0;3;0;11091;0;0;0;0;4;0;14089;0;0;0;0;5;0;33942;2;0;0;0;0;0;6;0;25351;2;0;0;0;0;0;7;0;23631;0;0;0;0;8;0;22891;0;0;0;0;9;0;12236;0;0;0;0
27.10.21;21:40:00;1;357;10650;0;2;0;17414;0;0;0;0;3;0;11091;0;0;0;0;4;0;14089;0;0;0;0;5;0;33942;2;0;0;0;0;0;6;0;25351;2;0;0;0;0;0;7;0;23631;0;0;0;0;8;0;22891;0;0;0;0;9;0;12236;0;0;0;0
27.10.21;21:35:00;1;355;10620;0;2;0;17414;0;0;0;0;3;0;11091;0;0;0;0;4;0;14089;0;0;0;0;5;0;33942;2;0;0;0;0;0;6;0;25351;2;0;0;0;0;0;7;0;23631;0;0;0;0;8;0;22891;0;0;0;0;9;0;12236;0;0;0;0
27.10.21;21:30:00;1;322;10590;0;2;0;17414;0;0;0;0;3;0;11091;0;0;0;0;4;0;14089;0;0;0;0;5;0;33942;2;0;0;0;0;0;6;0;25351;2;0;0;0;0;0;7;0;23631;0;0;0;0;8;0;22891;0;0;0;0;9;0;12236;0;0;0;0
27.10.21;21:25:00;1;386;10563;0;2;0;17414;0;0;0;0;3;0;11091;0;0;0;0;4;0;14089;0;0;0;0;5;0;33942;2;0;0;0;0;0;6;0;25351;2;0;0;0;0;0;7;0;23631;0;0;0;0;8;0;22891;0;0;0;0;9;0;12236;0;0;0;0
27.10.21;21:20:00;1;393;10531;0;2;0;17414;0;0;0;0;3;0;11091;0;0;0;0;4;0;14089;0;0;0;0;5;0;33942;2;0;0;0;0;0;6;0;25351;2;0;0;0;0;0;7;0;23631;0;0;0;0;8;0;22891;0;0;0;0;9;0;12236;0;0;0;0
27.10.21;21:15:00;1;383;10498;0;2;0;17414;0;0;0;0;3;0;11091;0;0;0;0;4;0;14089;0;0;0;0;5;0;33942;2;0;0;0;0;0;6;0;25351;2;0;0;0;0;0;7;0;23631;0;0;0;0;8;0;22891;0;0;0;0;9;0;12236;0;0;0;0
27.10.21;21:10:00;1;450;10466;0;2;0;17414;0;0;0;0;3;0;11091;0;0;0;0;4;0;14089;0;0;0;0;5;0;33942;2;0;0;0;0;0;6;0;25351;2;0;0;0;0;0;7;0;23631;0;0;0;0;8;0;22891;0;0;0;0;9;0;12236;0;0;0;0
27.10.21;21:05:00;1;600;10425;0;2;0;17414;0;0;0;0;3;0;11091;0;0;0;0;4;0;14089;0;0;0;0;5;0;33942;2;0;0;0;0;0;6;0;25351;2;0;0;0;0;0;7;0;23631;0;0;0;0;8;0;22891;0;0;0;0;9;0;12236;0;0;0;0
27.10.21;21:00:00;1;566;10377;0;2;0;17414;0;0;0;0;3;0;11091;0;0;0;0;4;0;14089;0;0;0;0;5;0;33942;2;0;0;0;0;0;6;0;25351;2;0;0;0;0;0;7;0;23631;0;0;0;0;8;0;22891;0;0;0;0;9;0;12236;0;0;0;0
27.10.21;20:55:00;1;758;10326;0;2;0;17414;0;0;0;0;3;0;11091;0;0;0;0;4;0;14089;0;0;0;0;5;0;33942;2;0;0;0;0;0;6;0;25351;2;0;0;0;0;0;7;0;23631;0;0;0;0;8;0;22891;0;0;0;0;9;0;12236;0;0;0;0
27.10.21;20:50:00;1;792;10262;0;2;0;17414;0;0;0;0;3;0;11091;0;0;0;0;4;0;14089;0;0;0;0;5;0;33942;2;0;0;0;0;0;6;0;25351;2;0;0;0;0;0;7;0;23631;0;0;0;0;8;0;22891;0;0;0;0;9;0;12236;0;0;0;0
27.10.21;20:45:00;1;763;10196;0;2;0;17414;0;0;0;0;3;0;11091;0;0;0;0;4;0;14089;0;0;0;0;5;0;33942;2;0;0;0;0;0;6;0;25351;2;0;0;0;0;0;7;0;23631;0;0;0;0;8;0;22891;0;0;0;0;9;0;12236;0;0;0;0
27.10.21;20:40:00;1;764;10133;0;2;0;17414;0;0;0;0;3;0;11091;0;0;0;0;4;0;14089;0;0;0;0;5;0;33942;2;0;0;0;0;0;6;0;25351;2;0;0;0;0;0;7;0;23631;0;0;0;0;8;0;22891;0;0;0;0;9;0;12236;0;0;0;0
27.10.21;20:35:00;1;714;10069;0;2;0;17414;0;0;0;0;3;0;11091;0;0;0;0;4;0;14089;0;0;0;0;5;0;33942;2;0;0;0;0;0;6;0;25351;2;0;0;0;0;0;7;0;23631;0;0;0;0;8;0;22891;0;0;0;0;9;0;12236;0;0;0;0
27.10.21;20:30:00;1;2217;10006;0;2;0;17414;0;0;0;0;3;0;11091;0;0;0;0;4;0;14089;0;0;0;0;5;0;33942;2;0;0;0;0;0;6;0;25351;2;0;0;0;0;0;7;0;23631;0;0;0;0;8;0;22891;0;0;0;0;9;0;12236;0;0;0;0
27.10.21;20:25:00;1;860;9850;0;2;0;17414;0;0;0;0;3;0;11091;0;0;0;0;4;0;14089;0;0;0;0;5;0;33942;2;0;0;0;0;0;6;0;25351;2;0;0;0;0;0;7;0;23631;0;0;0;0;8;0;22891;0;0;0;0;9;0;12236;0;0;0;0
27.10.21;20:20:00;1;752;9782;0;2;0;17414;0;0;0;0;3;0;11091;0;0;0;0;4;0;14089;0;0;0;0;5;0;33942;2;0;0;0;0;0;6;0;25351;2;0;0;0;0;0;7;0;23631;0;0;0;0;8;0;22891;0;0;0;0;9;0;12236;0;0;0;0
27.10.21;20:15:00;1;805;9717;0;2;0;17414;0;0;0;0;3;0;11091;0;0;0;0;4;0;14089;0;0;0;0;5;0;33942;2;0;0;0;0;0;6;0;25351;2;0;0;0;0;0;7;0;23631;0;0;0;0;8;0;22891;0;0;0;0;9;0;12236;0;0;0;0
27.10.21;20:10:00;1;802;9650;0;2;0;17414;0;0;0;0;3;0;11091;0;0;0;0;4;0;14089;0;0;0;0;5;0;33942;2;0;0;0;0;0;6;0;25351;2;0;0;0;0;0;7;0;23631;0;0;0;0;8;0;22891;0;0;0;0;9;0;12236;0;0;0;0
27.10.21;20:05:00;1;768;9585;0;2;0;17414;0;0;0;0;3;0;11091;0;0;0;0;4;0;14089;0;0;0;0;5;0;33942;2;0;0;0;0;0;6;0;25351;2;0;0;0;0;0;7;0;23631;0;0;0;0;8;0;22891;0;0;0;0;9;0;12236;0;0;0;0
27.10.21;20:00:00;1;991;9520;0;2;0;17414;0;0;0;0;3;0;11091;0;0;0;0;4;0;14089;0;0;0;0;5;0;33942;2;0;0;0;0;0;6;0;25351;2;0;0;0;0;0;7;0;23631;0;0;0;0;8;0;22891;0;0;0;0;9;0;12236;0;0;0;0
27.10.21;19:55:00;1;876;9431;0;2;0;17414;0;0;0;0;3;0;11091;0;0;0;0;4;0;14089;0;0;0;0;5;0;33942;2;0;0;0;0;0;6;0;25351;2;0;0;0;0;0;7;0;23631;0;0;0;0;8;0;22891;0;0;0;0;9;0;12236;0;0;0;0
27.10.21;19:50:00;1;838;9357;0;2;0;17414;0;0;0;0;3;0;11091;0;0;0;0;4;0;14089;0;0;0;0;5;0;33942;2;0;0;0;0;0;6;0;25351;2;0;0;0;0;0;7;0;23631;0;0;0;0;8;0;22891;0;0;0;0;9;0;12236;0;0;0;0
27.10.21;19:45:00;1;812;9280;0;2;0;17414;0;0;0;0;3;0;11091;0;0;0;0;4;0;14089;0;0;0;0;5;0;33942;2;0;0;0;0;0;6;0;25351;2;0;0;0;0;0;7;0;23631;0;0;0;0;8;0;22891;0;0;0;0;9;0;12236;0;0;0;0
27.10.21;19:40:00;1;849;9212;0;2;0;17414;0;0;0;0;3;0;11091;0;0;0;0;4;0;14089;0;0;0;0;5;0;33942;2;0;0;0;0;0;6;0;25351;2;0;0;0;0;0;7;0;23631;0;0;0;0;8;0;22891;0;0;0;0;9;0;12236;0;0;0;0
27.10.21;19:35:00;1;777;9142;0;2;0;17414;0;0;0;0;3;0;11091;0;0;0;0;4;0;14089;0;0;0;0;5;0;33942;2;0;0;0;0;0;6;0;25351;2;0;0;0;0;0;7;0;23631;0;0;0;0;8;0;22891;0;0;0;0;9;0;12236;0;0;0;0
27.10.21;19:30:00;1;727;9077;0;2;0;17414;0;0;0;0;3;0;11091;0;0;0;0;4;0;14089;0;0;0;0;5;0;33942;2;0;0;0;0;0;6;0;25351;2;0;0;0;0;0;7;0;23631;0;0;0;0;8;0;22891;0;0;0;0;9;0;12236;0;0;0;0
27.10.21;19:25:00;1;885;9014;0;2;0;17414;0;0;0;0;3;0;11091;0;0;0;0;4;0;14089;0;0;0;0;5;0;33942;2;0;0;0;0;0;6;0;25351;2;0;0;0;0;0;7;0;23631;0;0;0;0;8;0;22891;0;0;0;0;9;0;12236;0;0;0;0
27.10.21;19:20:00;1;977;8941;0;2;0;17414;0;0;0;0;3;0;11091;0;0;0;0;4;0;14089;0;0;0;0;5;0;33942;2;0;0;0;0;0;6;0;25351;2;0;0;0;0;0;7;0;23631;0;0;0;0;8;0;22891;0;0;0;0;9;0;12236;0;0;0;0
27.10.21;19:15:00;1;2536;8863;0;2;0;17414;0;0;0;0;3;0;11091;0;0;0;0;4;0;14089;0;0;0;0;5;0;33942;2;0;0;0;0;0;6;0;25351;2;0;0;0;0;0;7;0;23631;0;0;0;0;8;0;22891;0;0;0;0;9;0;12236;0;0;0;0
27.10.21;19:10:00;1;3144;8655;0;2;0;17414;0;0;0;0;3;0;11091;0;0;0;0;4;0;14089;0;0;0;0;5;0;33942;2;0;0;0;0;0;6;0;25351;2;0;0;0;0;0;7;0;23631;0;0;0;0;8;0;22891;0;0;0;0;9;0;12236;0;0;0;0
27.10.21;19:05:00;1;592;8454;0;2;0;17414;0;0;0;0;3;0;11091;0;0;0;0;4;0;14089;0;0;0;0;5;0;33942;2;0;0;0;0;0;6;0;25351;2;0;0;0;0;0;7;0;23631;0;0;0;0;8;0;22891;0;0;0;0;9;0;12236;0;0;0;0
27.10.21;19:00:00;1;444;8404;0;2;0;17414;0;0;0;0;3;0;11091;0;0;0;0;4;0;14089;0;0;0;0;5;0;33942;2;0;0;0;0;0;6;0;25351;2;0;0;0;0;0;7;0;23631;0;0;0;0;8;0;22891;0;0;0;0;9;0;12236;0;0;0;0
27.10.21;18:55:00;1;463;8366;0;2;0;17414;0;0;0;0;3;0;11091;0;0;0;0;4;0;14089;0;0;0;0;5;0;33942;2;0;0;0;0;0;6;0;25351;2;0;0;0;0;0;7;0;23631;0;0;0;0;8;0;22891;0;0;0;0;9;0;12236;0;0;0;0
27.10.21;18:50:00;1;1001;8327;0;2;0;17414;0;0;0;0;3;0;11091;0;0;0;0;4;0;14089;0;0;0;0;5;0;33942;2;0;0;0;0;0;6;0;25351;2;0;0;0;0;0;7;0;23631;0;0;0;0;8;0;22891;0;0;0;0;9;0;12236;0;0;0;0
27.10.21;18:45:00;1;1109;8239;0;2;0;17414;0;0;0;0;3;0;11091;0;0;0;0;4;0;14089;0;0;0;0;5;0;33942;2;0;0;0;0;0;6;0;25351;2;0;0;0;0;0;7;0;23631;0;0;0;0;8;0;22891;0;0;0;0;9;0;12236;0;0;0;0
27.10.21;18:40:00;1;627;8146;0;2;0;17414;0;0;0;0;3;0;11091;0;0;0;0;4;0;14089;0;0;0;0;5;0;33942;2;0;0;0;0;0;6;0;25351;2;0;0;0;0;0;7;0;23631;0;0;0;0;8;0;22891;0;0;0;0;9;0;12236;0;0;0;0
27.10.21;18:35:00;1;416;8098;0;2;0;17414;0;0;0;0;3;0;11091;0;0;0;0;4;0;14089;0;0;0;0;5;0;33942;2;0;0;0;0;0;6;0;25351;2;0;0;0;0;0;7;0;23631;0;0;0;0;8;0;22891;0;0;0;0;9;0;12236;0;0;0;0
27.10.21;18:30:00;1;360;8063;0;2;0;17414;0;0;0;0;3;0;11091;0;0;0;0;4;0;14089;0;0;0;0;5;0;33942;2;0;0;0;0;0;6;0;25351;2;0;0;0;0;0;7;0;23631;0;0;0;0;8;0;22891;0;0;0;0;9;0;12236;0;0;0;0
27.10.21;18:25:00;1;726;8024;0;2;0;17414;0;0;176;12;3;0;11091;2;0;285;20;4;0;14089;0;0;16;7;5;0;33942;2;0;0;0;0;0;6;0;25351;2;0;0;0;0;0;7;0;23631;0;0;0;0;8;0;22891;0;0;0;0;9;0;12236;0;0;0;0
27.10.21;18:20:00;1;422;7962;0;2;0;17414;6;0;314;18;3;0;11091;6;0;379;21;4;0;14089;2;0;84;21;5;0;33942;2;0;0;0;0;0;6;0;25351;2;0;0;0;0;0;7;0;23631;0;0;7;4;8;0;22891;0;0;0;0;9;0;12236;0;0;0;0
27.10.21;18:15:00;1;533;7926;0;2;0;17414;6;0;372;19;3;0;11091;4;4;438;21;4;0;14089;1;0;180;21;5;0;33942;2;0;0;353;399;32;6;0;25351;26;0;0;484;480;29;7;0;23631;6;0;364;24;8;0;22891;6;0;356;23;9;0;12236;6;0;356;18
27.10.21;18:10:00;1;283;7890;0;2;0;17414;6;0;386;19;3;3;11091;3;7;444;22;4;0;14089;1;0;211;22;5;0;33942;23;0;0;407;618;32;6;0;25351;26;0;0;547;543;30;7;0;23631;4;0;412;24;8;0;22891;6;1;410;23;9;0;12236;6;0;421;18
27.10.21;18:05:00;1;257;7867;0;2;0;17414;6;0;383;20;3;0;11090;6;3;474;22;4;0;14089;1;0;208;22;5;9;33942;4;0;0;402;629;32;6;6;25351;1;0;0;548;540;30;7;0;23631;3;3;396;24;8;0;22891;6;1;399;23;9;0;12236;6;1;434;19
27.10.21;18:00:00;1;250;7845;0;2;0;17414;6;0;387;21;3;2;11090;6;5;476;22;4;0;14089;1;0;208;23;5;10;33941;4;0;0;403;631;33;6;8;25351;1;0;0;547;539;30;7;0;23631;6;2;412;25;8;0;22891;6;0;415;24;9;0;12236;4;0;443;19
27.10.21;17:55:00;1;268;7821;0;2;0;17414;6;0;404;21;3;0;11090;6;5;501;23;4;0;14089;3;0;199;24;5;77;33940;4;1;9;375;597;34;6;32;25350;1;0;4;557;539;31;7;0;23631;6;7;447;25;8;2;22891;4;6;430;24;9;2;12236;3;4;463;19
27.10.21;17:50:00;1;338;7798;0;2;56;17414;4;89;358;23;3;5;11090;6;11;514;23;4;7;14089;3;7;198;24;5;117;33934;4;19;29;375;597;34;6;87;25347;4;0;21;531;511;32;7;16;23631;6;27;434;26;8;6;22891;3;11;464;25;9;2;12236;6;6;511;20
27.10.21;17:45:00;1;342;7770;0;2;185;17409;4;226;378;23;3;86;11090;6;123;499;24;4;72;14089;3;75;205;24;5;178;33923;4;54;56;375;597;34;6;134;25339;4;12;49;531;511;32;7;74;23629;4;111;402;26;8;63;22890;4;101;411;25;9;4;12235;6;8;537;20
27.10.21;17:40:00;1;331;7741;0;2;325;17394;4;369;389;24;3;147;11083;4;192;522;24;4;230;14083;5;240;217;25;5;234;33908;4;82;85;375;597;34;6;190;25328;4;35;75;531;511;32;7;135;23623;4;164;418;27;8;105;22884;4;137;392;26;9;10;12235;6;13;543;21
27.10.21;17:35:00;1;516;7714;0;2;366;17367;4;410;381;24;3;166;11070;4;216;549;25;4;302;14064;5;315;218;25;5;329;33888;4;144;119;375;597;35;6;251;25312;4;69;112;531;511;32;7;217;23611;4;256;488;27;8;137;22876;4;174;419;26;9;9;12234;6;13;553;21
27.10.21;17:30:00;1;462;7670;0;2;252;17337;4;289;365;25;3;138;11057;4;176;470;25;4;190;14038;5;198;224;25;5;309;33860;4;130;109;375;597;35;6;237;25291;4;64;98;531;511;32;7;210;23593;4;249;443;28;8;132;22864;4;173;403;27;9;0;12233;6;0;575;22
27.10.21;17:25:00;1;434;7634;0;2;470;17316;4;519;387;26;3;290;11045;4;331;417;26;4;343;14022;5;358;231;26;5;480;33834;4;226;183;387;589;35;6;367;25271;4;127;165;531;525;32;7;373;23576;4;420;465;28;8;204;22853;4;240;450;27;9;80;12233;4;115;484;23
27.10.21;17:20:00;1;436;7597;0;2;720;17277;4;774;369;27;3;477;11022;4;524;421;26;4;522;13994;5;544;225;26;5;722;33793;4;350;289;404;605;35;6;551;25239;4;203;254;552;551;32;7;703;23546;4;750;454;29;8;282;22836;4;332;455;27;9;100;12227;4;140;506;23
27.10.21;17:15:00;1;398;7560;0;2;863;17217;4;920;355;27;3;543;10982;4;594;426;26;4;587;13951;5;612;226;26;5;895;33731;4;435;364;399;636;35;6;669;25192;4;263;306;543;556;33;7;1010;23487;4;1067;443;29;8;353;22813;4;395;435;28;9;125;12218;4;160;512;24
27.10.21;17:10:00;1;400;7527;0;2;999;17145;4;1063;359;28;3;587;10937;4;641;424;27;4;604;13902;5;630;218;27;5;1015;33655;4;506;414;415;644;36;6;760;25136;4;305;350;548;555;33;7;1179;23403;4;1247;459;29;8;455;22783;4;497;369;28;9;136;12208;4;174;533;24
27.10.21;17:05:00;1;403;7495;0;2;1176;17062;4;1253;384;29;3;648;10888;4;704;425;27;4;648;13852;5;675;223;27;5;1180;33570;4;583;487;408;667;36;6;895;25071;4;367;414;590;558;33;7;1463;23304;4;1540;473;30;8;749;22745;4;796;360;29;9;157;12197;4;196;539;24
27.10.21;17:00:00;1;349;7463;0;2;1264;16964;4;1343;384;29;3;693;10834;4;748;424;27;4;689;13798;5;718;233;27;5;1285;33471;4;661;536;407;672;36;6;979;24996;4;417;456;579;559;33;7;1577;23184;4;1665;479;30;8;1037;22683;4;1099;388;29;9;170;12184;4;206;489;25
27.10.21;16:55:00;1;373;7434;0;2;1336;16859;4;1416;381;30;3;731;10776;4;788;424;28;4;705;13740;5;734;217;27;5;1433;33362;4;725;600;411;670;36;6;1083;24914;4;470;504;589;555;33;7;1705;23051;4;1803;469;31;8;1372;22596;4;1446;438;30;9;174;12169;4;206;389;26
27.10.21;16:50:00;1;821;7402;0;2;1397;16748;4;1479;387;31;3;772;10715;4;828;412;28;4;711;13681;5;740;207;28;5;1555;33242;4;793;656;412;671;37;6;1174;24823;4;520;553;585;557;33;7;1805;22909;4;1904;468;31;8;1613;22483;4;1695;458;30;9;269;12155;4;304;353;27
27.10.21;16:45:00;1;1074;7332;0;2;1539;16631;4;1625;382;31;3;864;10651;4;925;422;28;4;760;13622;5;792;201;28;5;1774;33110;4;922;753;422;678;37;6;1340;24724;4;602;627;595;556;33;7;2001;22758;4;2108;471;31;8;1896;22348;4;1995;465;31;9;570;12132;4;612;353;27
27.10.21;16:40:00;1;700;7243;0;2;1549;16503;4;1636;379;32;3;890;10579;4;951;417;29;4;744;13558;5;775;200;28;5;1891;32961;4;990;798;417;677;37;6;1419;24612;4;651;671;586;559;34;7;2069;22592;4;2176;471;32;8;2021;22191;4;2124;464;31;9;736;12085;4;785;369;28
27.10.21;16:35:00;1;397;7191;0;2;1683;16373;4;1776;372;33;3;950;10504;4;1014;413;29;4;765;13497;5;797;199;29;5;2066;32803;4;1085;888;410;678;37;6;1559;24493;4;715;736;595;561;34;7;2226;22419;4;2345;465;32;8;2183;22021;4;2292;464;32;9;915;12023;4;973;408;29
27.10.21;16:30:00;1;350;7159;0;2;1809;16233;4;1905;379;33;3;1023;10425;4;1088;417;29;4;791;13433;5;823;214;29;5;2305;32629;4;1210;984;409;677;38;6;1730;24362;4;807;820;587;559;34;7;2450;22236;4;2572;463;33;8;2399;21841;4;2519;466;32;9;1068;11948;4;1135;431;30
27.10.21;16:25:00;1;700;7128;0;2;1664;16084;4;1755;374;34;3;943;10340;4;1006;413;29;4;733;13367;5;763;225;29;5;2198;32437;4;1166;939;411;670;38;6;1652;24218;4;761;786;588;554;34;7;2211;22032;4;2327;464;33;8;2184;21641;4;2292;462;33;9;1029;11859;4;1097;458;31
27.10.21;16:20:00;1;801;7050;0;2;1523;15944;4;1606;368;34;3;855;10261;4;918;411;30;4;696;13306;5;725;245;30;5;2100;32255;4;1097;895;414;667;38;6;1573;24081;4;734;741;571;558;34;7;2105;21846;4;2213;462;34;8;1646;21457;4;1731;366;26;9;1006;11773;4;1079;484;32
27.10.21;16:15:00;1;1360;6947;0;2;1716;15818;4;1809;372;36;3;952;10190;4;1013;410;30;4;741;13248;5;772;227;30;5;2310;32082;4;1232;993;407;674;39;6;1718;23952;4;804;820;575;548;35;7;2241;21672;4;2355;459;34;8;1868;21250;0;1971;387;28;9;1146;11690;4;1224;508;32
27.10.21;16:10:00;1;1402;6817;0;2;2062;15676;4;2171;369;37;3;1147;10112;4;1217;408;31;4;881;13187;5;918;226;31;5;2882;31885;4;1538;1241;410;676;39;6;2143;23806;4;1024;1026;577;548;35;7;2713;21487;4;2855;463;34;8;2670;21104;4;2806;453;34;9;1442;11595;4;1535;502;34
27.10.21;16:05:00;1;2227;6692;0;2;2569;15504;4;2706;370;38;3;1435;10016;4;1515;407;32;4;1059;13113;5;1102;234;31;5;3674;31644;4;1988;1597;412;665;39;6;2727;23625;4;1325;1316;581;549;35;7;3439;21260;4;3612;455;35;8;3362;20880;4;3529;456;34;9;1826;11474;4;1940;505;34
27.10.21;16:00:00;1;2291;6504;0;2;2716;15292;4;2859;374;38;3;1510;9898;4;1591;405;32;4;1148;13026;5;1196;234;32;5;3957;31333;4;2128;1726;409;664;40;6;2933;23396;4;1442;1415;579;549;35;7;3661;20977;4;3837;459;35;8;3586;20603;4;3763;456;34;9;1957;11325;4;2073;503;35
27.10.21;15:55:00;1;1682;6315;0;2;2854;15066;4;3002;372;39;3;1576;9772;4;1661;403;32;4;1255;12930;5;1307;242;32;5;4252;31002;4;2306;1858;409;669;40;6;3151;23150;4;1554;1528;578;550;35;7;3843;20672;4;4031;456;35;8;3769;20304;4;3952;449;35;9;2063;11160;4;2185;500;35
27.10.21;15:50:00;1;377;6174;0;2;2907;14828;4;3051;371;39;3;1603;9641;4;1687;408;33;4;1377;12825;5;1434;227;32;5;4396;30647;4;2388;1918;412;667;40;6;3271;22886;4;1612;1583;582;551;35;7;3905;20350;4;4099;459;35;8;3851;19990;4;4037;455;35;9;2110;10989;4;2233;503;35
27.10.21;15:45:00;1;311;6142;0;2;2915;14586;4;3067;376;39;3;1603;9508;4;1687;406;33;4;1476;12710;5;1537;239;33;5;4487;30282;4;2437;1964;412;670;40;6;3334;22613;4;1643;1621;576;551;35;7;3890;20026;4;4087;449;35;8;3819;19670;4;4006;450;35;9;2094;10813;4;2222;505;35
27.10.21;15:40:00;1;348;6116;0;2;2899;14344;4;3050;377;40;3;1581;9374;4;1664;410;33;4;1522;12588;5;1585;238;33;5;4507;29907;4;2443;1975;413;663;40;6;3355;22336;4;1655;1633;576;551;35;7;3844;19702;4;4035;459;36;8;3776;19352;4;3955;448;35;9;2071;10639;4;2197;505;35
27.10.21;15:35:00;1;344;6088;0;2;2979;14102;4;3134;376;40;3;1636;9242;4;1720;411;34;4;1646;12461;5;1715;235;34;5;4733;29530;4;2570;2074;410;664;41;6;3528;22055;4;1752;1714;577;549;35;7;3991;19381;4;4186;456;36;8;3253;19036;4;3413;374;29;9;2155;10465;4;2281;507;36
27.10.21;15:30:00;1;386;6061;0;2;3046;13855;4;3200;376;40;3;1743;9106;4;1836;440;34;4;1744;12324;5;1817;230;34;5;4896;29134;4;2667;2147;408;656;41;6;3647;21761;4;1809;1771;578;550;35;7;4049;19050;4;4247;452;36;8;3995;18710;4;4188;452;35;9;2194;10286;4;2323;498;36
27.10.21;15:25:00;1;349;6030;0;2;3015;13601;4;3173;381;40;3;1838;8961;4;1939;465;35;4;1841;12179;5;1918;232;35;5;4953;28728;4;2693;2172;409;659;41;6;3677;21458;4;1823;1794;575;549;36;7;3909;18718;4;4096;448;36;8;3884;18382;4;4079;449;36;9;2135;10106;4;2259;498;36
27.10.21;15:20:00;1;342;6002;0;2;3118;13350;4;3272;373;40;3;1979;8808;4;2090;476;35;4;1958;12026;5;2039;233;35;5;5187;28315;4;2836;2274;404;661;41;6;3876;21150;4;1933;1888;569;545;36;7;4143;18389;4;4340;452;36;8;4085;18055;4;4287;445;36;9;2250;9926;4;2382;502;37
27.10.21;15:15:00;1;334;5975;0;2;3206;13091;4;3368;375;41;3;2096;8644;4;2215;484;35;4;2098;11863;5;2185;233;35;5;5394;27879;4;2943;2371;404;655;41;6;4018;20826;4;2016;1952;565;547;36;7;4335;18044;4;4547;447;37;8;4249;17714;4;4455;447;36;9;2334;9739;4;2468;500;37
27.10.21;15:10:00;1;341;5946;0;2;3282;12825;4;3445;369;41;3;2160;8469;4;2282;486;35;4;2263;11689;5;2358;232;36;5;5624;27429;4;3078;2476;405;653;41;6;4179;20491;4;2103;2039;573;545;36;7;4483;17684;4;4697;444;37;8;4411;17361;4;4625;440;36;9;2432;9544;4;2572;494;37
27.10.21;15:05:00;1;326;5918;0;2;3279;12551;4;3445;371;41;3;2164;8289;4;2285;487;35;4;2353;11501;5;2450;233;36;5;5735;26958;4;3143;2526;406;657;41;6;4266;20141;4;2140;2082;571;546;36;7;4502;17309;4;4728;449;37;8;4425;16993;4;4651;446;36;9;2444;9341;4;2584;499;37
27.10.21;15:00:00;1;264;5890;0;2;3363;12278;4;3537;378;41;3;2217;8109;4;2338;487;35;4;2468;11305;5;2571;233;36;5;5919;26481;4;3242;2613;405;657;41;6;4405;19786;4;2220;2149;574;546;36;7;4586;16934;4;4819;444;37;8;4517;16623;4;4739;447;36;9;2474;9137;4;2633;494;38
27.10.21;14:55:00;1;361;5868;0;2;3419;11998;4;3592;377;41;3;2249;7924;4;2374;485;35;4;2576;11099;5;2683;231;37;5;6094;25987;4;3336;2692;406;653;42;6;4528;19418;4;2281;2213;567;545;36;7;4673;16552;4;4904;439;37;8;4600;16248;4;4831;444;36;9;2542;8931;4;2692;489;38
27.10.21;14:50:00;1;378;5838;0;2;3415;11712;4;3590;379;41;3;2259;7737;4;2384;489;35;4;2643;10884;5;2753;235;37;5;6177;25477;4;3387;2726;408;657;42;6;4592;19040;4;2316;2244;571;542;36;7;4701;16161;4;4929;444;37;8;4640;15867;4;4872;444;36;9;2559;8720;4;2706;492;38
27.10.21;14:45:00;1;417;5807;0;2;3442;11429;4;3623;382;41;3;2274;7548;4;2401;493;35;4;2770;10664;5;2885;230;37;5;6299;24963;4;3452;2782;408;661;42;6;4683;18656;4;2362;2291;568;547;36;7;4785;15771;4;5018;448;37;8;4698;15478;4;4932;450;36;9;2602;8506;4;2750;494;38